Weather Roundup
Issued by NWS

Home | Current Version | Previous Version | Graphics & Text | Print | Product List | Glossary Off
Versions: 1 2 3 4 5 6 7 8 9 10 11 12 13 14 15 16 17 18 19 20 21 22 23 24 25 26 27 28 29 30 31 32 33 34 35 36 37 38 39 40 41 42 43 44 45 46 47 48 49 50

445
NZUS93 KARX 260559
HRRWXR

CURRENT HOURLY OBSERVATIONS ACROSS
MUCH OF THE UPPER MISSISSIPPI VALLEY
NATIONAL WEATHER SERVICE LA CROSSE WI
100 AM CDT WED APR 26 2017


...SOUTHEAST MINNESOTA...


CITY           SKY/WX    TMP DP  RH WIND       PRES   REMARKS
ROCHESTER      LGT RAIN  53  52  96 NE10      29.46F
ROCHESTER/MAYO CLOUDY    54  54 100 N7        29.47F
WINONA         DRIZZLE   55  52  88 NE3       29.48F
AUSTIN         RAIN      54  52  94 NE7       29.45F
ALBERT LEA     LGT RAIN  52  52 100 E7        29.45F
DODGE CENTER   LGT RAIN  52  52 100 NE8       29.47F
PRESTON        CLOUDY    53  50  90 NE9       29.45F
OWATONNA       RAIN      54  52  94 E8        29.46F
FARIBAULT      CLOUDY    54  54 100 NE8       29.47F
$$

...ELSEWHERE IN MINNESOTA...


CITY           SKY/WX    TMP DP  RH WIND       PRES   REMARKS
MINNEAPOLIS    CLOUDY    47  44  90 NE16G23   29.52S
INTNL FALLS    CLOUDY    26  21  81 NE17G25   29.87F WCI  13
DULUTH         LGT RAIN  36  34  92 E15       29.70F WCI  27
RED WING       RAIN      55  52  88 E6        29.48F
REDWOOD FALLS  LGT RAIN  42  40  92 NW12      29.56S FOG
MANKATO        LGT RAIN  51  51 100 NW6       29.49S VSB 1/2
WORTHINGTON    LGT RAIN  38  37  97 N20       29.57S WCI  28
FAIRMONT       LGT RAIN  43  42  97 NW21      29.50F
$$

...SOUTHWEST WISCONSIN...


CITY           SKY/WX    TMP DP  RH WIND       PRES   REMARKS
LA CROSSE      RAIN      57  55  93 CALM      29.48R FOG
PRAIRIE DU CHI LGT RAIN  58  56  93 CALM      29.46F
BOSCOBEL       LGT RAIN  60  56  86 CALM      29.47S
LONE ROCK      NOT AVBL
PLATTEVILLE    CLOUDY    62  54  75 SW6       29.48R
FORT MC COY    CLOUDY    56  53  88 SW5       29.49R
MAUSTON-NEW LI CLOUDY    57  52  82 CALM      29.47R
VIROQUA        CLOUDY    57  53  88 SW3       29.48F
WIS DELLS      LGT RAIN  63  50  62 S5        29.47S
$$

...ELSEWHERE IN WISCONSIN...


CITY           SKY/WX    TMP DP  RH WIND       PRES   REMARKS
MILWAUKEE      CLOUDY    59  51  75 SE13      29.55F
MADISON        CLOUDY    65  50  58 SE9       29.47F
GREEN BAY      LGT RAIN  56  53  90 E12       29.56F
EAU CLAIRE     NOT AVBL
BLACK RVR FLS  CLOUDY    55  55 100 N7        29.47F
MEDFORD        LGT RAIN  53  51  95 NE10      29.53F
WAUSAU         LGT RAIN  56  53  90 NE9       29.51F
WIS RAPIDS     CLOUDY    61  53  75 CALM      29.49F
MARSHFIELD     LGT RAIN  56  51  84 NE8       29.50F
RICE LAKE      RAIN      42  41  94 N12       29.59F
$$

...NORTHEAST IOWA...


CITY           SKY/WX    TMP DP  RH WIND       PRES   REMARKS
WATERLOO       CLOUDY    60  54  80 S3        29.41F
DUBUQUE        CLOUDY    61  54  77 SE5       29.45F
DECORAH        CLOUDY    59  55  88 SE7       29.43F
MASON CITY     CLOUDY    53  51  93 W7        29.47F FOG
CHARLES CITY   CLOUDY    55  55 100 N8        29.44F
OELWEIN        CLOUDY    59  57  94 SE6       29.42F
$$

...ELSEWHERE IN IOWA...


CITY           SKY/WX    TMP DP  RH WIND       PRES   REMARKS
DES MOINES     DRIZZLE   49  45  86 NW9       29.50S
IOWA CITY      CLOUDY    64  54  69 SE3       29.43S
FORT DODGE     CLOUDY    45  39  81 NW7       29.51S
MARSHALLTOWN   MOCLDY    55  52  89 W9        29.44R
CEDAR RAPIDS   CLOUDY    57  57 100 E5        29.41F
$$

...NORTHERN ILLINOIS...


CITY           SKY/WX    TMP DP  RH WIND       PRES   REMARKS
CHICAGO-OHARE  CLOUDY    68  53  58 S10       29.53F
CHICAGO-MIDWAY CLOUDY    69  54  58 S10       29.55F
MOLINE         MOCLDY    72  48  42 S15G25    29.43S
ROCKFORD       CLOUDY    67  52  58 SE14G22   29.50F
PEORIA         CLOUDY    68  51  54 S12       29.50F
$$

NOTE: "FAIR" INDICATES FEW OR NO CLOUDS BELOW 12,000 FEET WITH NO
SIGNIFICANT WEATHER AND/OR OBSTRUCTIONS TO VISIBILITY. WIND
SPEEDS ARE IN MILES-PER-HOUR.




USA.gov is the U.S. government's official web portal to all federal, state and local government web resources and services.